Location: Olomouc
(49.5830°N, 17.2500°E)
Time: 21:15:45
(UTC+02:00)

ISS - Pass Details

Date: 14 May 2021
Orbit: 417 x 422 km, 51.6° (Epoch: 14 June)

Event Time Altitude Azimuth Distance (km) Brightness Sun altitude
Rises 21:13:41 0° 190° (S) 2,350 -0.3 -6.9°
Reaches altitude 10° 21:16:58 10° 155° (SSE) 1,494 -1.5 -7.3°
Maximum altitude 21:18:07 11° 135° (SE) 1,413 -1.8 -7.4°
Drops below altitude 10° 21:19:16 10° 115° (ESE) 1,499 -1.6 -7.6°
Enters shadow 21:20:51 - 94° (E) 1,836 -1.0 -7.8°
